DW7011 Weather Reports


time (UTC)temp
F
wind
direction
speed
knots
gust
knots
rain 1hr
in
rain 24hr
in
rain mn
in
humidity
%
barometer
mb
20260505124340 67 217 2.6 5.2 0.00 0.00 0.00 61 1012.0
20260505123330 66 217 1.7 5.2 0.00 0.00 0.00 62 1012.1
20260505122326 66 208 1.7 3.5 0.00 0.00 0.00 62 1012.1
20260505121345 65 49 0.9 3.5 0.00 0.00 0.00 63 1012.0
20260505120331 64 186 0.9 2.6 0.00 0.00 0.00 65 1011.9
20260505114325 64 231 0.0 2.6 0.00 0.00 0.00 66 1011.6
20260505113337 64 141 0.0 1.7 0.00 0.00 0.00 66 1011.4
20260505112335 63 140 0.0 1.7 0.00 0.00 0.00 68 1011.4
20260505111352 62 205 0.0 1.7 0.00 0.00 0.00 68 1011.3
20260505101327 56 247 0.0 0.9 0.00 0.00 0.00 74 1010.7
20260505100344 56 248 0.0 0.9 0.00 0.00 0.00 75 1010.6
20260505095325 56 248 0.0 0.9 0.00 0.00 0.00 74 1010.5
20260505094325 56 248 0.0 0.9 0.00 0.00 0.00 74 1010.7
20260505093341 57 248 0.0 0.9 0.00 0.00 0.00 73 1010.5
20260505092338 57 248 0.0 0.9 0.00 0.00 0.00 74 1010.5
20260505091328 57 248 0.0 0.9 0.00 0.00 0.00 73 1010.6
20260505090340 58 248 0.0 0.9 0.00 0.00 0.00 72 1010.3
20260505085334 59 248 0.0 0.9 0.00 0.00 0.00 71 1010.5
20260505083324 59 155 0.0 0.9 0.00 0.00 0.00 70 1010.5
20260505082341 59 158 0.0 1.7 0.00 0.00 0.00 70 1010.4
20260505080328 59 243 0.0 1.7 0.00 0.00 0.00 70 1010.3
20260505074324 58 129 0.0 0.9 0.00 0.00 0.00 70 1010.2
20260505073339 59 120 0.0 0.9 0.00 0.00 0.00 69 1010.2
20260505072326 59 120 0.0 1.7 0.00 0.00 0.00 68 1010.1
20260505071339 60 224 0.0 0.9 0.00 0.00 0.00 67 1010.0
20260505065329 60 225 0.0 0.0 0.00 0.00 0.00 67 1010.2
20260505064330 60 225 0.0 0.9 0.00 0.00 0.00 66 1010.3
20260505063345 60 225 0.0 0.9 0.00 0.00 0.00 67 1010.4
20260505062326 60 225 0.0 0.9 0.00 0.00 0.00 66 1010.4
20260505061343 60 225 0.0 0.9 0.00 0.00 0.00 67 1010.4
20260505060339 60 226 0.0 0.9 0.00 0.00 0.00 66 1010.4
20260505055332 61 226 0.0 1.7 0.00 0.00 0.00 65 1010.4
20260505054350 61 264 0.0 1.7 0.00 0.00 0.00 65 1010.4
20260505053337 61 290 0.9 0.9 0.00 0.00 0.00 65 1010.6
20260505052328 60 323 0.0 0.0 0.00 0.00 0.00 65 1010.4
20260505051328 60 323 0.0 0.9 0.00 0.00 0.00 64 1010.4
20260505050342 61 231 0.0 0.9 0.00 0.00 0.00 64 1010.4
20260505040324 62 275 1.7 3.5 0.00 0.00 0.00 61 1010.2
20260505035340 62 271 0.9 2.6 0.00 0.00 0.00 60 1010.2
20260505034333 63 223 1.7 5.2 0.00 0.00 0.00 59 1010.0
20260505033347 63 255 1.7 4.3 0.00 0.00 0.00 58 1010.0
20260505031334 63 249 1.7 6.1 0.00 0.00 0.00 57 1009.9
20260505025341 63 195 1.7 3.5 0.00 0.00 0.00 57 1010.1
20260505024340 62 248 0.9 3.5 0.00 0.00 0.00 57 1010.1
20260505022333 62 296 0.0 3.5 0.00 0.00 0.00 56 1010.2
20260505020343 63 138 0.0 2.6 0.00 0.00 0.00 54 1010.1
20260505015331 63 120 0.0 0.9 0.00 0.00 0.00 54 1010.2
20260505014329 64 189 0.0 0.9 0.00 0.00 0.00 53 1010.3
20260505013326 64 150 0.9 2.6 0.00 0.00 0.00 51 1010.4
20260505012344 65 337 0.9 2.6 0.00 0.00 0.00 51 1010.2
20260505011336 65 231 1.7 7.0 0.00 0.00 0.00 49 1010.1
20260505010327 65 138 0.9 7.8 0.00 0.00 0.00 49 1009.9
20260505005325 66 124 0.9 4.3 0.00 0.00 0.00 48 1009.7
20260505004344 66 158 1.7 7.0 0.00 0.00 0.00 48 1009.7
20260505003330 67 181 3.5 7.8 0.00 0.00 0.00 47 1009.7
20260505000337 68 181 2.6 8.7 0.00 0.00 0.00 45 1009.4
20260504235331 68 209 1.7 7.0 0.00 0.00 0.00 45 1009.4
20260504234332 69 129 1.7 6.1 0.00 0.00 0.00 44 1009.4
20260504233330 69 4 2.6 5.2 0.00 0.00 0.00 44 1009.4
20260504232343 70 224 0.9 11.3 0.00 0.00 0.00 43 1009.2
20260504231332 70 96 2.6 7.8 0.00 0.00 0.00 42 1009.4
20260504230325 71 143 3.5 7.0 0.00 0.00 0.00 42 1009.4
20260504225340 71 102 0.9 9.6 0.00 0.00 0.00 42 1009.4
20260504224336 71 155 2.6 7.0 0.00 0.00 0.00 41 1009.4
20260504223323 72 250 2.6 9.6 0.00 0.00 0.00 40 1009.4
20260504222336 72 243 3.5 12.2 0.00 0.00 0.00 41 1009.4
20260504221333 72 229 2.6 9.6 0.00 0.00 0.00 40 1009.4
20260504215326 74 266 4.3 10.4 0.00 0.00 0.00 37 1009.4
20260504214344 74 259 5.2 12.2 0.00 0.00 0.00 36 1009.4
20260504213324 74 227 4.3 10.4 0.00 0.00 0.00 37 1009.4
20260504212341 75 238 4.3 7.8 0.00 0.00 0.00 35 1009.5
20260504211338 75 250 3.5 7.8 0.00 0.00 0.00 35 1009.4
20260504210334 74 256 5.2 11.3 0.00 0.00 0.00 36 1009.4
20260504205348 75 264 2.6 7.8 0.00 0.00 0.00 37 1009.5
20260504204337 75 282 4.3 8.7 0.00 0.00 0.00 36 1009.5
20260504203327 75 264 3.5 10.4 0.00 0.00 0.00 36 1009.6
20260504202324 75 297 2.6 9.6 0.00 0.00 0.00 37 1009.7
20260504200336 74 210 4.3 11.3 0.00 0.00 0.00 35 1009.9
20260504195323 73 266 4.3 9.6 0.00 0.00 0.00 36 1010.2
20260504194336 73 212 6.1 9.6 0.00 0.00 0.00 36 1010.4
20260504193333 74 225 6.1 12.2 0.00 0.00 0.00 35 1010.4
20260504192329 74 259 4.3 11.3 0.00 0.00 0.00 38 1010.6
20260504191347 73 228 4.3 9.6 0.00 0.00 0.00 37 1010.7
20260504190452 73 232 6.1 13.0 0.00 0.00 0.00 36 1010.9
20260504185347 74 274 3.5 7.8 0.00 0.00 0.00 36 1011.0
20260504184342 72 200 4.3 9.6 0.00 0.00 0.00 37 1011.1
20260504183326 73 259 5.2 10.4 0.00 0.00 0.00 36 1011.3
20260504182339 72 246 3.5 8.7 0.00 0.00 0.00 36 1011.3
20260504181339 72 258 2.6 7.8 0.00 0.00 0.00 38 1011.4
20260504180333 72 146 2.6 11.3 0.00 0.00 0.00 38 1011.6
20260504175345 71 206 6.1 13.9 0.00 0.00 0.00 36 1011.8
20260504174336 72 257 1.7 10.4 0.00 0.00 0.00 39 1011.8
20260504173330 71 252 3.5 11.3 0.00 0.00 0.00 40 1012.0
20260504172329 71 224 3.5 10.4 0.00 0.00 0.00 36 1012.2
20260504171343 71 278 5.2 12.2 0.00 0.00 0.00 38 1012.3
20260504170329 70 287 4.3 9.6 0.00 0.00 0.00 37 1012.5
20260504150326 66 212 3.5 8.7 0.00 0.00 0.00 39 1014.1
20260504140330 62 233 1.7 7.0 0.00 0.00 0.00 47 1014.3
20260504130330 57 139 0.9 4.3 0.00 0.00 0.00 55 1014.6